TimeCST,TemperatureF,Dew PointF,Humidity,Sea Level PressureIn,VisibilityMPH,Wind Direction,Wind SpeedMPH,Gust SpeedMPH,PrecipitationIn,Events,Conditions,WindDirDegrees,DateUTC
12:53 AM,26.1,21.9,84,30.18,10.0,Calm,Calm,-,N/A,,Clear,0,2013-01-17 06:53:00
1:53 AM,26.1,21.9,84,30.19,10.0,Calm,Calm,-,N/A,,Clear,0,2013-01-17 07:53:00
2:53 AM,27.0,21.0,78,30.19,10.0,Calm,Calm,-,N/A,,Clear,0,2013-01-17 08:53:00
3:53 AM,26.1,21.0,81,30.17,10.0,Calm,Calm,-,N/A,,Clear,0,2013-01-17 09:53:00
4:53 AM,30.0,21.9,72,30.16,10.0,NW,8.1,-,N/A,,Clear,310,2013-01-17 10:53:00
5:53 AM,30.0,23.0,75,30.18,10.0,NNW,5.8,-,N/A,,Clear,330,2013-01-17 11:53:00
6:53 AM,30.9,21.9,69,30.21,10.0,NNW,4.6,-,N/A,,Clear,340,2013-01-17 12:53:00
7:53 AM,32.0,23.0,69,30.25,10.0,NW,3.5,-,N/A,,Clear,320,2013-01-17 13:53:00
8:53 AM,36.0,26.1,67,30.27,10.0,NNW,3.5,-,N/A,,Overcast,340,2013-01-17 14:53:00
9:53 AM,39.0,28.0,65,30.30,10.0,North,9.2,-,N/A,,Overcast,350,2013-01-17 15:53:00
10:53 AM,42.1,30.0,62,30.30,10.0,North,10.4,-,N/A,,Mostly Cloudy,350,2013-01-17 16:53:00
11:53 AM,46.0,33.1,61,30.28,10.0,NNW,16.1,-,N/A,,Clear,340,2013-01-17 17:53:00
12:20 PM,46.4,33.8,62,30.27,10.0,North,11.5,-,N/A,,Mostly Cloudy,350,2013-01-17 18:20:00
12:40 PM,46.4,33.8,62,30.26,10.0,North,18.4,-,N/A,,Scattered Clouds,350,2013-01-17 18:40:00
12:53 PM,46.0,33.1,61,30.28,10.0,NW,17.3,-,N/A,,Clear,320,2013-01-17 18:53:00
1:53 PM,45.0,32.0,60,30.30,10.0,NNW,18.4,-,N/A,,Partly Cloudy,330,2013-01-17 19:53:00
2:53 PM,44.1,28.9,55,30.32,10.0,NNW,23.0,27.6,N/A,,Clear,340,2013-01-17 20:53:00
3:53 PM,45.0,28.9,53,30.36,10.0,NW,11.5,-,N/A,,Clear,320,2013-01-17 21:53:00
4:53 PM,43.0,28.0,56,30.38,10.0,WNW,4.6,-,N/A,,Clear,290,2013-01-17 22:53:00
5:53 PM,39.9,26.1,58,30.41,10.0,West,3.5,-,N/A,,Clear,260,2013-01-17 23:53:00
6:53 PM,35.1,27.0,72,30.45,10.0,Calm,Calm,-,N/A,,Clear,0,2013-01-18 00:53:00
7:53 PM,32.0,26.1,79,30.47,10.0,Calm,Calm,-,N/A,,Clear,0,2013-01-18 01:53:00
8:53 PM,32.0,25.0,75,30.50,10.0,North,5.8,-,N/A,,Clear,10,2013-01-18 02:53:00
9:53 PM,30.9,25.0,79,30.51,10.0,Calm,Calm,-,N/A,,Clear,0,2013-01-18 03:53:00
10:53 PM,30.0,25.0,82,30.51,10.0,Calm,Calm,-,N/A,,Clear,0,2013-01-18 04:53:00
11:53 PM,28.9,23.0,78,30.52,10.0,North,3.5,-,N/A,,Clear,350,2013-01-18 05:53:00